Regional Weather Roundup
Issued by NWS

Home | Current Version | Previous Version | Text Only | Print | Product List | Glossary Off
Versions: 1 2 3 4 5 6 7 8 9 10 11 12 13 14 15 16 17 18 19 20 21 22 23 24 25 26 27

000
ASUS45 KSLC 261510
RWRUT

UTAH REGIONAL WEATHER ROUNDUP
NATIONAL WEATHER SERVICE SALT LAKE CITY UT
900 AM MDT TUE JUL 26 2016

UTZ001>011-023>025-261600-

NORTHERN UTAH

CITY           SKY/WX    TMP DP  RH WIND       PRES   REMARKS
BRIGHAM CITY     N/A     73  39  29 NW7       30.09R
DUGWAY         MOSUNNY   82  38  21 NW8       30.10R
HILL AFB       MOSUNNY   78  40  25 E15       30.11R
LOGAN          SUNNY     70  42  36 N3        30.12S
OGDEN          SUNNY     79  41  25 S5        30.08R
PROVO AIRPORT  MOSUNNY   79  43  27 E12       30.12R
SALT LAKE CITY MOSUNNY   86  43  22 S7        30.07R
VERNAL         SUNNY     70  38  31 CALM      30.21R
WENDOVER       SUNNY     81  36  19 NE3       30.09R
HEBER CITY     SUNNY     70  41  35 CALM      30.20S

$$

UTZ012>022-026-027-261600-

SOUTHERN/CENTRAL UTAH

CITY           SKY/WX    TMP DP  RH WIND       PRES   REMARKS
BLANDING       CLOUDY    76  47  34 CALM      30.35R
BRYCE CANYON   SUNNY     69  46  43 NW3       30.41R
CEDAR CITY     SUNNY     79  44  28 CALM      30.23R
DELTA          SUNNY     81  37  21 S10       30.14R
MILFORD        SUNNY     80  45  28 S15       30.17R
MOAB/CYNLANDS  MOSUNNY   84  45  25 SE5       30.13R
PRICE          MOSUNNY   77  38  24 S3        30.24R
ST GEORGE      SUNNY     88  46  23 E8        30.06R

$$

REGIONAL REPORTS     COLORADO/ARIZONA

CITY           SKY/WX    TMP DP  RH WIND       PRES   REMARKS
CRAIG, CO      CLOUDY    68  42  38 CALM      30.30R
GRAND JUNCTION MOSUNNY   79  44  28 SE8       30.18R
RIFLE          CLOUDY    73  44  35 N5        30.26R
MONTROSE       CLOUDY    74  46  36 CALM      30.28R
CORTEZ         SUNNY     72  55  55 SE6       30.28R
PAGE, AZ       MOSUNNY   85  45  24 CALM      30.15R
GRAND CANYON   CLOUDY    75  47  36 NE3       30.34R
KINGMAN        SUNNY     87  49  26 CALM      30.07R
FLAGSTAFF      CLOUDY    62  59  90 CALM      30.38R

$$

REGIONAL REPORTS    NEVADA/IDAHO/WYOMING

CITY           SKY/WX    TMP DP  RH WIND       PRES   REMARKS
LAS VEGAS, NV  MOSUNNY   91  53  27 W6        29.91R
ELY            SUNNY     68  29  23 S7        30.27R
ELKO           SUNNY     65  25  22 MISG      30.19R
POCATELLO, ID  SUNNY     69  36  29 NW3       30.13R
BURLEY         SUNNY     63  48  58 CALM      30.08S
EVANSTON, WY   CLOUDY    67  36  31 S5        30.32S
ROCK SPRINGS   SUNNY     71  34  25 CALM      30.28S
KEMMERER         N/A     68  32  26 N8        30.33S

$$




USA.gov is the U.S. government's official web portal to all federal, state and local government web resources and services.